◎96Pの予報位置



  本日,YCを発送するが,以下の3項目が入らなかった.5月末に下記原稿を

最新のものに書き直して,YCを発行する予定である.



マックホルツ第1周期彗星  96P/Machholz 1

    スペインのゴンザレス(J. Gonzales, Leon)は,その眼視全光度を2007年4

月22日に8.8等,5月9日に10.9等と観測している.その後のCCD全光度が,5月

4日に11.6等,7日に11.5等,11日に11.9等(門田健一;上尾),14日に12.4等,

15日に12.1等(浅見敦夫;秦野),12.4等(門田)17日に12.8等,19日に13.3等,

20日に12.6等(著者;洲本)と観測されている(cf. YC 2550, YC 2553).以下

は,山本速報2553にある軌道からの予報位置である.なお,6月1日までの位

置予報がYC 2550にある.



2007/        α  (2000) δ      △      r    Daily motion  Elong. Phase    m1 

 23h JST    h  m       。  ,        AU      AU      ,     。     。      。      等

June  1   19 42.15  +12 04.2    0.608   1.439   102.5/250   123.0   36.2   10.8

      2   19 35.61  +11 28.3    0.610   1.455   102.5/249   125.4   34.6   10.9

      3   19 29.11  +10 51.7    0.613   1.472   102.2/249   127.7   33.0   10.9

      4   19 22.65  +10 14.4    0.617   1.488   101.7/248   130.0   31.4   11.0

      5   19 16.26  +09 36.6    0.621   1.505   101.0/248   132.3   29.9   11.1

      6   19 09.95  +08 58.4    0.626   1.521   100.1/247   134.6   28.4   11.1

      7   19 03.72  +08 19.8    0.631   1.537    99.0/247   136.7   26.9   11.2

      8   18 57.59  +07 41.0    0.637   1.553    97.7/247   138.9   25.5   11.2

      9   18 51.57  +07 02.1    0.644   1.569    96.2/246   140.9   24.1   11.3

     10   18 45.66  +06 23.3    0.651   1.584    94.6/246   142.9   22.7   11.4

     11   18 39.87  +05 44.6    0.659   1.600    92.8/246   144.8   21.4   11.4

     12   18 34.22  +05 06.0    0.668   1.616    90.9/245   146.6   20.2   11.5

     13   18 28.70  +04 27.8    0.677   1.631    88.8/245   148.3   19.1   11.6

     14   18 23.33  +03 50.0    0.687   1.647    86.7/245   149.9   18.0   11.6

     15   18 18.10  +03 12.7    0.697   1.662    84.5/244   151.4   17.0   11.7

     16   18 13.03  +02 35.9    0.708   1.677    82.2/244   152.7   16.1   11.8

     17   18 08.11  +01 59.8    0.720   1.692    79.8/244   153.9   15.3   11.8

     18   18 03.34  +01 24.2    0.732   1.707    77.4/243   154.9   14.7   11.9

     19   17 58.73  +00 49.4    0.744   1.722    75.0/243   155.7   14.1   12.0

     20   17 54.27  +00 15.3    0.758   1.737    72.6/243   156.3   13.6   12.1

     21   17 49.97  -00 18.0    0.771   1.752    70.2/242   156.8   13.2   12.1

     22   17 45.83  -00 50.5    0.785   1.766    67.7/242   157.0   13.0   12.2

     23   17 41.84  -01 22.2    0.800   1.781    65.3/242   157.1   12.8   12.3

     24   17 38.00  -01 53.1    0.815   1.795    63.0/241   157.0   12.8   12.3

     25   17 34.31  -02 23.2    0.831   1.810    60.7/241   156.8   12.8   12.4

     26   17 30.76  -02 52.5    0.847   1.824    58.4/241   156.3   12.9   12.5

     27   17 27.36  -03 20.9    0.863   1.838    56.1/240   155.8   13.1   12.6

     28   17 24.10  -03 48.6    0.880   1.853    53.9/240   155.2   13.3   12.6

     29   17 20.97  -04 15.4    0.897   1.867    51.8/240   154.4   13.6   12.7

     30   17 17.98  -04 41.5    0.915   1.881    49.7/239   153.6   13.9   12.8

July  1   17 15.11  -05 06.9    0.933   1.895    47.7/239   152.7   14.3   12.8

                    m1 = 10.5 + 5 log △ +  9.0 log r

NAKANO

         **** Don't distribute anyone except personal use only ****

                (C) Copyright 2007 OAA/ComputingSection

write mail from CFAD0::NAKANO on 2007-05-24 05:17:50(JST).

 

  96P/Machholz 1

Epoch 2007 Apr. 10.0 TT = JDT 2454200.5  

T 2007 Apr. 4.62209 TT                                  Nakano

q   0.1246176            (2000.0)            P               Q

n   0.18814611     Peri.   14.61814     -0.20273282     -0.46292040

a   3.0162863      Node    94.55065     +0.78888543     -0.59926955

e   0.9586851      Incl.   59.95510     +0.58013721     +0.65313146

P   5.24

From 239 observations 1986-2007, mean residual 0".92.

   Nongravitational parameters A1 = +0.003 +/- 0.003, A2 = -0.00012 +/- 0.00000.



NAKANO

         **** Don't distribute anyone except personal use only ****

                (C) Copyright 2007 OAA/ComputingSection

write mail from CFAD0::NAKANO on 2007-05-04 04:01:44(JST).



◎96Pの軌道と予報位置    [From YC 2550 + Addition]



マックホルツ第1周期彗星  96P/Machholz 1

  その軌道の全周で観測可能といわれたこの彗星の地上からの観測の報告は,

2002年7月以後,報告されていなかったが,2007年4月9日に上尾の門田健一氏

(Ken-ichi Kadota, Ageo)によって約5年ぶりに次のように再観測された.彗星

は,1986年の発見時とほぼ同じ観測条件で回帰し,今年4月4日に近日点を通っ

た.



    2007 UT             α     (2000)     δ             Mag.      Observer

                       h  m  s           。  ,  "

    Apr.  9.80984    00 38 49.32      +19 11 45.8                  Kadota

          9.81043    00 38 49.00      +19 11 48.4                   "

          9.81101    00 38 48.76      +19 11 49.8        6.8        "



  次の予報軌道は1986年から2002年までに行なわれた137個の観測を使用してOAA

計算課で計算したもの.平均残差は0".86(HICQ 2007; http://www.oaa.gr.jp/~

oaacs/nk/nk1044.htm).門田氏の観測位置は,赤経方向に刄ソ= +27",赤緯方向

に刄ツ= -4"ほどのずれがある.近日点通過時刻への補正値は小さく,儺= +0.003

日であった.そのため,下の位置予報には儺が補正されていない.



   T = 2007 Apr. 4.61930 TT     Epoch = 2007 Apr. 10.0 TT

   ω =  14o.61811                  e =   0.9586847           A1 =  +0.01

   Ω =  94.55066    (2000.0)       a =   3.0162725 AU        A2 =  -0.0002

   i =  59.95525                   n゚=   0.18814740

   q =   0.1246183 AU              P =   5.24 年



  2006年4月に入って,彗星の姿は,SWANイメージ上とLASCO C3カメラ上に捕

らえられている.LASCO C3カメラ上の彗星の光度を測光すると,2006年4月3.4875

日と3.6375日UTには3.4等,4月5.4875日と5.6375日UTには2.6等であった.この

光度は,ICQ Comet Handbook 2007(HICQ 2007, p.H63)の予報光度より,約2等

級ほど明るい.なお,門田氏による4月9日のCCD全光度は,上記のとおり,6.8等

と観測されている.氏の観測によれば,彗星のコマの視直径は1'.8,北北西に1'.4

の尾が見られた



 なお,門田氏は,4月14日にもこの彗星を捕らえた.そのCCD全光度は 8.3等,

視直径3'.0で集光は強くコマは明るい.北北西に7'の広がった淡い尾,西北西に

やや明るい長さ5'.5の尾,さらに南の彗星側が広く先端がとがった長さ2'の尾が

見られたという.



 氏の観測を加えた連結軌道は,次のとおり.算定軌道である.



  96P/Machholz 1

Epoch 2007 Apr. 10.0 TT = JDT 2454200.5  

T 2007 Apr. 4.62201 TT                                  Nakano

q   0.1246175            (2000.0)            P               Q

n   0.18814647     Peri.   14.61811     -0.20273253     -0.46292060

a   3.0162824      Node    94.55065     +0.78888581     -0.59926904

e   0.9586851      Incl.   59.95509     +0.58013679     +0.65313179

P   5.24

From 155 observations 1986-2007, mean residual 1".02.

   Nongravitational parameters A1 = +0.00 +/- 0.01, A2 = -0.0001 +/- 0.0000.



 YCにあるとおり,彗星は,下の予報より2等級ほど明るい.



2007/        α  (2000) δ      △      r    Daily motion  Elong. Phase    m1   天文薄明開始時

 18h TT     h  m       。  ,        AU      AU      ,     。     。      。      等     h。    A 。 

Apr. 20   23 30.33  +22 10.8    0.790   0.584    70.6/271    35.5   92.7    9.9   +15.6  253.6

     21   23 25.25  +22 12.1    0.784   0.610    69.1/271    37.4   91.4   10.0   +17.1  254.5

     22   23 20.28  +22 12.5    0.777   0.636    67.9/270    39.3   90.1   10.2   +18.5  255.5

     23   23 15.39  +22 11.9    0.771   0.661    66.8/269    41.1   88.9   10.3   +20.0  256.4

     24   23 10.58  +22 10.6    0.764   0.686    66.0/268    43.0   87.6   10.4   +21.4  257.4

     25   23 05.83  +22 08.5    0.758   0.711    65.4/268    44.9   86.4   10.6   +22.8  258.3

     26   23 01.12  +22 05.8    0.752   0.735    65.0/267    46.7   85.2   10.7   +24.2  259.3

     27   22 56.46  +22 02.5    0.745   0.759    64.7/267    48.6   84.0   10.8   +25.6  260.2

     28   22 51.81  +21 58.6    0.739   0.782    64.6/266    50.4   82.8   10.9   +27.0  261.2

     29   22 47.17  +21 54.1    0.733   0.805    64.7/266    52.3   81.6   11.0   +28.4  262.2

     30   22 42.54  +21 49.1    0.727   0.828    64.9/265    54.2   80.5   11.1   +29.8  263.2

May   1   22 37.90  +21 43.6    0.720   0.851    65.3/265    56.1   79.3   11.2   +31.2  264.3

      2   22 33.24  +21 37.5    0.714   0.873    65.7/264    57.9   78.1   11.2   +32.6  265.3

      3   22 28.55  +21 30.9    0.708   0.895    66.3/264    59.8   77.0   11.3   +34.0  266.4

      4   22 23.82  +21 23.8    0.702   0.916    67.1/264    61.8   75.8   11.4   +35.4  267.5

      5   22 19.06  +21 16.1    0.696   0.938    67.9/263    63.7   74.6   11.5   +36.8  268.7

      6   22 14.24  +21 07.7    0.690   0.959    68.9/263    65.6   73.4   11.5   +38.3  269.9

      7   22 09.36  +20 58.8    0.684   0.980    70.0/262    67.6   72.2   11.6   +39.7  271.2

      8   22 04.41  +20 49.1    0.678   1.000    71.1/262    69.6   71.0   11.7   +41.2  272.5

      9   21 59.39  +20 38.8    0.672   1.021    72.4/261    71.6   69.8   11.7   +42.6  273.9

     10   21 54.30  +20 27.8    0.666   1.041    73.8/261    73.6   68.5   11.8   +44.1  275.4

     11   21 49.12  +20 15.9    0.661   1.061    75.2/261    75.6   67.3   11.8   +45.6  276.9

     12   21 43.85  +20 03.3    0.655   1.081    76.7/260    77.7   66.0   11.9   +47.1  278.6

     13   21 38.49  +19 49.7    0.650   1.100    78.3/260    79.8   64.7   11.9   +48.6  280.3

     14   21 33.04  +19 35.2    0.645   1.120    80.0/259    81.9   63.3   12.0   +50.1  282.2

     15   21 27.49  +19 19.8    0.640   1.139    81.7/259    84.0   62.0   12.0   +51.6  284.2

     16   21 21.85  +19 03.3    0.635   1.158    83.4/258    86.2   60.6   12.1   +53.1  286.4

     17   21 16.10  +18 45.7    0.631   1.177    85.1/258    88.4   59.2   12.1   +54.6  288.8

     18   21 10.26  +18 27.1    0.627   1.195    86.9/257    90.6   57.8   12.2   +56.1  291.4

     19   21 04.32  +18 07.2    0.623   1.214    88.6/257    92.8   56.3   12.2   +57.6  294.2

     20   20 58.29  +17 46.2    0.619   1.232    90.3/256    95.1   54.9   12.3   +59.0  297.3

     21   20 52.17  +17 23.9    0.616   1.251    92.0/255    97.4   53.4   12.3   +60.3  300.7

     22   20 45.96  +17 00.4    0.613   1.269    93.6/255    99.7   51.9   12.4   +61.6  304.4

     23   20 39.68  +16 35.7    0.610   1.287    95.1/254   102.0   50.3   12.4   +62.8  308.5

     24   20 33.32  +16 09.6    0.608   1.304    96.5/254   104.4   48.8   12.5   +64.0  312.9

     25   20 26.90  +15 42.3    0.606   1.322    97.8/253   106.7   47.2   12.5   +65.0  317.8

     26   20 20.43  +15 13.7    0.605   1.339    99.0/253   109.1   45.6   12.6   +65.8  323.1

